www.pogodaiklimat.ru

Погода и климат >> Архив погоды >> Индия >> Западная Бенгалия >> Даймонд Харбор


ПОГОДА в Даймонд Харбор

  • Прогноз погоды в Даймонд Харбор
  • Монитор погоды в Даймонд Харбор

АРХИВ ПОГОДЫ в Даймонд Харбор

Время (UTC), дата Ветер
(напр.,м/с)
 
Видим.   Явления Облачность Т
(С)
Тd
(С)
f
(%)
Тe
(С)
Тes
(С)
Комфортность P
(гПа)
Po
(гПа)
Тmin
(С)
Tmax
(С)
R
(мм)
R24
(мм)
S
(см)
03 12.08 штиль 0 4000 м 10/6 600 м
[Frnb As op]
+29.4 +28.3 94 +50 +51 опасность
перегрева
997.6 996.8 +27.8 4
06 12.08 штиль 0 4000 м слаб. дождь 10/6 600 м
[Frnb As op]
+29.6 +29.1 97 +52 +54 опасность
перегрева
997.8 997.0 3
09 12.08 штиль 0 4000 м 9/6 600 м
[Frnb As op]
+32.4 +28.9 82 +56 +58 опасность
перегрева
995.9 995.1 3
12 12.08 штиль 0 4000 м {дождь} 10/6 600 м
[Frnb As op]
+29.6 +28.2 92 +49 +49 опасность
перегрева
996.0 995.2 +32.7 3
03 13.08 штиль 0 4000 м {дождь} 10/6 600 м
[Frnb As op]
+28.0 +27.4 97 +45 +46 опасность
перегрева
998.9 998.1 +26.0 68
06 13.08 штиль 0 4000 м {дождь} 9/6 600 м
[Frnb As op]
+29.0 +27.6 92 +47 +52 опасность
перегрева
999.3 998.5 0.6
09 13.08 Ю 0 4000 м 9/6 600 м
[Frnb As op]
+30.0 +27.8 88 +49 +52 опасность
перегрева
998.1 997.3 0.6
12 13.08 Ю 0 4000 м 9/6 600 м
[Frnb As op]
+29.2 +27.3 90 +47 +47 опасность
перегрева
998.7 997.9 +30.5 0.6
03 14.08 Ю 0 4000 м слаб. дождь 10/6 600 м
[Frnb As op]
+30.0 +28.4 91 +51 +52 опасность
перегрева
1003.3 1002.5 +27.2 1
06 14.08 Ю 0 4000 м {дождь} 9/6 600 м
[Sc Ac trans]
+31.6 +28.3 83 +53 +59 опасность
перегрева
1003.6 1002.8
09 14.08 Ю 0 4000 м 10/6 600 м
[Frnb As op]
+32.2 +28.4 80 +54 +55 опасность
перегрева
1002.5 1001.7
12 14.08 Ю 0 4000 м 10/6 600 м
[Frnb As op]
+30.6 +27.9 86 +51 +51 опасность
перегрева
1002.3 1001.5 +32.7
03 15.08 ЮВ 0 2000 м гроза, ливневой дождь 10/5 600 м
[Cb cap As op]
+27.4 +27.1 98 +43 +45 опасность
перегрева
1006.6 1005.8 +25.7 32
06 15.08 штиль 0 4000 м в посл. час дождь {гроза} 10/5 600 м
[Frnb As op]
+28.4 +27.9 97 +47 +50 опасность
перегрева
1006.1 1005.3 2
09 15.08 штиль 0 4000 м 10/5 600 м
[Frnb As op]
+30.0 +27.8 88 +49 +51 опасность
перегрева
1004.1 1003.3 2
12 15.08 штиль 0 4000 м 10/5 600 м
[Frnb As op]
+29.4 +28.0 92 +49 +49 опасность
перегрева
1003.3 1002.5 +30.0 2
03 16.08 штиль 0 4000 м 9/6 600 м
[Sc Ac trans]
+30.4 +28.8 91 +52 +56 опасность
перегрева
1004.9 1004.1 +28.2 2
06 16.08 ЮВ 0 4000 м 5/3 600 м
[Sc Ac trans]
+33.0 +29.5 82 +58 +75 опасность
перегрева
1004.4 1003.6
09 16.08 ЮВ 0 4000 м 5/4 600 м
[Sc Ac trans]
+33.2 +30.1 84 +61 +69 опасность
перегрева
1001.9 1001.1
12 16.08 штиль 0 4000 м гроза, ливневой дождь 10/6 600 м
[Cb cap As op]
+28.2 +27.6 97 +46 +46 опасность
перегрева
1002.5 1001.7 +34.0 6
03 17.08 штиль 0 4000 м слаб. дождь {гроза} 10/6 600 м
[Sc As op]
+25.8 +25.5 98 +38 +39 очень
душно
1005.5 1004.7 +24.4 201
06 17.08 штиль 0 4000 м слаб. дождь {гроза} 10/6 600 м
[Sc As op]
+26.4 +26.1 98 +39 +42 очень
душно
1004.4 1003.6 12
09 17.08 штиль 0 4000 м слаб. дождь 10/6 600 м
[Sc As op]
+27.2 +26.9 98 +42 +44 опасность
перегрева
1002.5 1001.7 16
12 17.08 штиль 0 4000 м в посл. час дождь 10/6 600 м
[Sc As op]
+27.0 +26.4 97 +41 +41 опасность
перегрева
1002.2 1001.4 +27.8 18
03 18.08 штиль 0 4000 м слаб. дождь 10/6 600 м
[Sc As op]
+25.6 +25.3 98 +37 +38 очень
душно
1005.3 1004.5 +25.0 24
06 18.08 штиль 0 500 м {дождь} 9/6 600 м
[Frnb As op]
+27.8 +26.7 94 +43 +48 опасность
перегрева
1004.6 1003.8 3
09 18.08 Ю 0 4000 м {дождь} 6/5 600 м
[Sc Ac trans]
+29.0 +27.1 90 +46 +53 опасность
перегрева
1002.9 1002.1 3
12 18.08 штиль 0 4000 м 9/6 600 м
[Sc Ac trans]
+28.0 +26.6 92 +43 +43 опасность
перегрева
1002.6 1001.8 +30.0 3

 

Местоположение метеостанции Даймонд Харбор (Западная Бенгалия, Индия): широта 22.18 долгота 88.20 высота над уровнем моря 7 м.

В архиве по умолчанию представлена погода в Даймонд Харбор за последнюю неделю. Архивные данные за месяц целиком и за предыдущие месяцы, начиная с января 2011 года, Вы можете получить, выбрав интересующий диапазон дат из раскрывающегося списка и нажав кнопку "Ввод!".


*Определитесь, кто Вы:
робот инопланетянин человек

Внимание! Время в таблицах - всемирное. Для получения местного времени необходимо прибавить поправку, которая равна 5.5 ч.

Смотрите также архив погоды в соседних городах и на ближайших метеорологических станциях:

Погода в Халдии (Западная Бенгалия, Индия) (23 км)
Погода в Колкате (Западная Бенгалия, Индия) (41 км)
Погода в Улуберии (Западная Бенгалия, Индия) (44 км)
Погода в Каннинге (Западная Бенгалия, Индия) (49 км)
Погода в Колкате (Западная Бенгалия, Индия) (58 км)
Погода в Контае (Западная Бенгалия, Индия) (64 км)
Погода в Бейсирхэте (Западная Бенгалия, Индия) (86 км)
Погода в Багати (Западная Бенгалия, Индия) (91 км)
Погода в Миднапуре (Западная Бенгалия, Индия) (94 км)
Погода в Диге (Западная Бенгалия, Индия) (95 км)

Пояснения к столбцам:

Ветер - указаны скорость ветра в м/с - средняя за 10 мин, порывы в срок и между сроками (в фигурных скобках) и направление, откуда дует ветер: С - северный, СВ - северо-восточный, В - восточный, ЮВ - юго-восточный, Ю - южный, ЮЗ - юго-западный, З - западный, СЗ - северо-западный.
Видимость - горизонтальная дальность видимости в метрах или километрах. При видимости от 1 до 10 км при отсутствии осадков обычно наблюдается дымка, при ухудшении видимости до 1 км и менее - туман. В сухую погоду видимость может ухудшаться дымом, пылью или мглою.
Явления - указаны атмосферные явления, наблюдавшиеся в срок или в последний час перед сроком; фигурными скобками обозначены явления, наблюдавшиеся между сроками (за 1-3 часа до срока); квадратными скобками обозначены град или гололедные отложения с указанием их диаметра в мм.
Облачность - указаны через наклонную черту общая и нижняя облачность в баллах и высота нижней границы облаков в метрах; квадратными скобками обозначены формы облаков: Ci - перистые, Cs - перисто-слоистые, Cc - перисто-кучевые, Ac - высококучевые, As - высокослоистые, Sc - слоисто-кучевые, Ns - слоисто-дождевые, Cu - кучевые, Cb - кучево-дождевые. Подробнее классификацию облаков см. в Атласе облаков (PDF).
T - Температура воздуха - температура, измеренная на высоте 2 м над землей.
Td - Температура точки росы - температура, при понижении до которой содержащийся в воздухе водяной пар достигнет насыщения.
f - Относительная влажность воздуха - влажноcть воздуха, измеренная на высоте 2 м над землей.
Te - Эффективная температура - температура, которую ощущает одетый по сезону человек в тени. Характеристика душности погоды. При расчете учитывается влияние влажности воздуха и скорости ветра на теплоощущения человека.
Tes - Эффективная температура на солнце - температура, которую ощущает человек, с поправкой на солнечный нагрев. Характеристика знойности погоды. Зависит от высоты солнца над горизонтом, облачности и скорости ветра. Ночью, в пасмурную погоду, а также при ветре 12 м/с и более поправка равна нулю.
P - Атмосферное давление - приведенное к уровню моря атмосферное давление.
Po - Атмосферное давление - измеренное на уровне метеостанции атмосферное давление.
Tmin - Минимальная температура - минимум температуры воздуха на высоте 2 м над землей.
Tmax - Максимальная температура - максимум температуры воздуха на высоте 2 м над землей.
R - Количество осадков - Количество выпавших осадков за период времени, мм. При наведении курсора мыши на число - период времени, за который выпало указанное количество осадков.
R24 - Количество осадков - Количество выпавших осадков за 24 часа, мм.
S - Снежный покров - Высота снежного покрова, см. При наведении курсора мыши на число - состояние снежного покрова и степень покрытия местности в баллах.